Location: Luxembourg
(49.6117°N, 6.1300°E)
Time: 22:27:19
(UTC+02:00)

ISS - Visible Passes

Search period start: 23 September 2018 00:00
Search period end: 03 October 2018 00:00
Orbit: 403 x 408 km, 51.6° (Epoch: 23 September)

Date Brightness Start Highest point End Pass type
(mag) Time Alt. Az. Time Alt. Az. Time Alt. Az.
23 Sep -3.0 21:09:39 10° SW 21:12:21 33° SSE 21:12:21 33° SSE visible
24 Sep -2.4 20:18:19 10° SSW 20:20:58 22° SE 20:22:54 14° E visible
24 Sep -2.1 21:53:51 10° WSW 21:55:35 29° WSW 21:55:35 29° WSW visible
25 Sep -3.8 21:02:01 10° WSW 21:05:17 62° SSE 21:05:59 47° E visible
25 Sep -0.4 22:38:34 10° W 22:38:41 11° W 22:38:41 11° W visible
26 Sep -3.2 20:10:18 10° SW 20:13:26 41° SSE 20:16:15 12° E visible
26 Sep -2.6 21:46:34 10° W 21:48:56 42° WNW 21:48:56 42° WNW visible
27 Sep -3.9 20:54:36 10° WSW 20:57:54 84° NNW 20:59:06 37° ENE visible
27 Sep -0.6 22:31:19 10° WNW 22:31:47 13° WNW 22:31:47 13° WNW visible
28 Sep -3.8 20:02:41 10° WSW 20:05:58 72° SSE 20:09:12 10° ENE visible
28 Sep -2.7 21:39:18 10° W 21:41:52 45° NW 21:41:52 45° NW visible
29 Sep -3.5 20:47:16 10° W 20:50:34 64° N 20:51:54 31° ENE visible
29 Sep -0.6 22:23:58 10° WNW 22:24:34 15° WNW 22:24:34 15° WNW visible
30 Sep -3.7 19:55:14 10° W 19:58:32 76° NNW 20:01:51 10° ENE visible
30 Sep -2.9 21:31:57 10° WNW 21:34:34 47° NW 21:34:34 47° NW visible
01 Oct -3.5 20:39:55 10° W 20:43:12 58° N 20:44:32 31° ENE visible
01 Oct -0.7 22:16:31 10° WNW 22:17:12 15° WNW 22:17:12 15° WNW visible
02 Oct -3.5 19:47:51 10° W 19:51:08 61° N 19:54:24 10° ENE visible
02 Oct -3.1 21:24:31 10° WNW 21:27:09 52° WNW 21:27:09 52° WNW visible
